User: anonymous   Login
Location: Unspecified
(0.0000°N, 0.0000°E)
Time: 23:07:25
(UTC+02:00)
Language:

Iridium 33 - Orbit

View from above orbital plane
View from above orbital plane
View from above satellite
View from above satellite

Ground track
Ground track

The orbit data is extracted from the following two-line orbital elements,

1 24946U 97051C   18172.91074180 +.00000092 +00000-0 +25956-4 0  9998
2 24946 086.3880 132.0402 0009893 112.1671 248.0575 14.33607510086993
Epoch (UTC): 21 June 2018 21:51:28
Eccentricity: 0.0009893
inclination: 86.3880°
perigee height: 772 km
apogee height: 787 km
right ascension of ascending node: 132.0402°
argument of perigee: 112.1671°
revolutions per day: 14.33607510
mean anomaly at epoch: 248.0575°
orbit number at epoch: 8699

The dashed part of the orbit path shows where the satellite is in the earth's shadow,  

DLR